Time,TemperatureF,DewpointF,PressureIn,WindDirection,WindDirectionDegrees,WindSpeedMPH,WindSpeedGustMPH,Humidity,HourlyPrecipIn,Conditions,Clouds,dailyrainin,SoftwareType,DateUTC
2013-01-01 00:11:00,41.8,41.0,30.03,NNE,15,0.0,2.0,96,0.08,,,0.01,weatherlink.com 1.10,2013-01-01 06:11:00,
2013-01-01 00:26:00,41.8,41.0,30.03,NNE,16,0.0,1.0,96,0.08,,,0.03,weatherlink.com 1.10,2013-01-01 06:26:00,
2013-01-01 00:41:00,41.8,41.0,30.03,NNE,16,0.0,1.0,96,0.09,,,0.07,weatherlink.com 1.10,2013-01-01 06:41:00,
2013-01-01 00:56:00,41.8,41.0,30.03,NNE,16,0.0,0.0,96,0.10,,,0.10,weatherlink.com 1.10,2013-01-01 06:56:00,
2013-01-01 01:11:00,41.8,41.0,30.03,NNE,16,0.0,0.0,96,0.12,,,0.13,weatherlink.com 1.10,2013-01-01 07:11:00,
2013-01-01 01:26:00,41.9,41.0,30.03,NNE,16,0.0,1.0,96,0.12,,,0.16,weatherlink.com 1.10,2013-01-01 07:26:00,
2013-01-01 01:41:00,41.9,41.0,30.03,NNE,15,0.0,0.0,96,0.11,,,0.18,weatherlink.com 1.10,2013-01-01 07:41:00,
2013-01-01 01:56:00,42.0,41.0,30.05,NNE,16,0.0,1.0,96,0.08,,,0.19,weatherlink.com 1.10,2013-01-01 07:56:00,
2013-01-01 02:11:00,42.1,41.0,30.04,NW,321,0.0,1.0,96,0.07,,,0.20,weatherlink.com 1.10,2013-01-01 08:11:00,
2013-01-01 02:26:00,42.1,41.0,30.03,North,352,0.0,1.0,96,0.05,,,0.21,weatherlink.com 1.10,2013-01-01 08:26:00,
2013-01-01 02:41:00,42.1,41.0,30.03,North,352,0.0,0.0,96,0.04,,,0.22,weatherlink.com 1.10,2013-01-01 08:41:00,
2013-01-01 02:56:00,42.1,41.0,30.05,North,352,0.0,0.0,96,0.04,,,0.23,weatherlink.com 1.10,2013-01-01 08:56:00,
2013-01-01 03:11:00,42.2,41.0,30.06,North,352,0.0,0.0,96,0.05,,,0.25,weatherlink.com 1.10,2013-01-01 09:11:00,
2013-01-01 03:26:00,42.3,42.0,30.06,North,352,0.0,1.0,97,0.06,,,0.27,weatherlink.com 1.10,2013-01-01 09:26:00,
2013-01-01 03:41:00,42.4,41.0,30.04,North,352,0.0,1.0,96,0.07,,,0.29,weatherlink.com 1.10,2013-01-01 09:41:00,
2013-01-01 03:56:00,42.3,41.0,30.04,NNE,16,2.0,2.0,96,0.07,,,0.30,weatherlink.com 1.10,2013-01-01 09:56:00,
2013-01-01 04:11:00,42.2,41.0,30.04,North,9,0.0,2.0,96,0.05,,,0.30,weatherlink.com 1.10,2013-01-01 10:11:00,
2013-01-01 04:26:00,42.2,41.0,30.04,North,9,0.0,0.0,97,0.03,,,0.30,weatherlink.com 1.10,2013-01-01 10:26:00,
2013-01-01 04:41:00,42.3,42.0,30.05,SW,236,0.0,2.0,97,0.02,,,0.31,weatherlink.com 1.10,2013-01-01 10:41:00,
2013-01-01 04:56:00,42.4,42.0,30.06,NNE,18,3.0,3.0,97,0.02,,,0.32,weatherlink.com 1.10,2013-01-01 10:56:00,
2013-01-01 05:11:00,42.4,42.0,30.06,WNW,286,1.0,6.0,97,0.04,,,0.34,weatherlink.com 1.10,2013-01-01 11:11:00,
2013-01-01 05:26:00,42.3,42.0,30.07,NNE,29,1.0,4.0,97,0.04,,,0.35,weatherlink.com 1.10,2013-01-01 11:26:00,
2013-01-01 05:42:00,42.2,41.0,30.07,NNE,20,4.0,7.0,96,0.05,,,0.36,weatherlink.com 1.10,2013-01-01 11:42:00,
2013-01-01 05:57:00,41.9,41.0,30.05,NE,40,2.0,6.0,96,0.05,,,0.37,weatherlink.com 1.10,2013-01-01 11:57:00,
2013-01-01 06:12:00,41.7,41.0,30.03,NNE,18,2.0,3.0,96,0.04,,,0.38,weatherlink.com 1.10,2013-01-01 12:12:00,
2013-01-01 06:27:00,41.5,41.0,30.03,North,358,2.0,4.0,96,0.04,,,0.39,weatherlink.com 1.10,2013-01-01 12:27:00,
2013-01-01 06:42:00,41.5,41.0,30.03,ENE,67,1.0,5.0,96,0.03,,,0.39,weatherlink.com 1.10,2013-01-01 12:42:00,
2013-01-01 06:57:00,41.3,40.0,30.03,NNE,27,5.0,6.0,96,0.02,,,0.39,weatherlink.com 1.10,2013-01-01 12:57:00,
2013-01-01 07:12:00,41.3,40.0,30.06,NW,314,0.0,3.0,96,0.01,,,0.39,weatherlink.com 1.10,2013-01-01 13:12:00,
2013-01-01 07:27:00,41.2,40.0,30.07,NNE,23,3.0,5.0,96,0.00,,,0.39,weatherlink.com 1.10,2013-01-01 13:27:00,
2013-01-01 07:42:00,41.2,40.0,30.05,NE,51,0.0,5.0,95,0.00,,,0.39,weatherlink.com 1.10,2013-01-01 13:42:00,
2013-01-01 07:57:00,41.2,40.0,30.07,NNE,19,1.0,2.0,96,0.00,,,0.39,weatherlink.com 1.10,2013-01-01 13:57:00,
2013-01-01 08:12:00,41.1,40.0,30.08,North,353,4.0,9.0,95,0.01,,,0.40,weatherlink.com 1.10,2013-01-01 14:12:00,
2013-01-01 08:27:00,41.0,40.0,30.09,NNE,32,2.0,7.0,95,0.01,,,0.40,weatherlink.com 1.10,2013-01-01 14:27:00,
2013-01-01 08:42:00,40.9,40.0,30.09,NE,44,2.0,5.0,95,0.01,,,0.40,weatherlink.com 1.10,2013-01-01 14:42:00,
2013-01-01 08:57:00,40.8,40.0,30.10,North,356,3.0,7.0,95,0.01,,,0.40,weatherlink.com 1.10,2013-01-01 14:57:00,
2013-01-01 09:12:00,40.7,39.0,30.10,NNE,27,2.0,4.0,95,0.00,,,0.40,weatherlink.com 1.10,2013-01-01 15:12:00,
2013-01-01 09:27:00,40.6,39.0,30.11,East,84,3.0,5.0,94,0.00,,,0.40,weatherlink.com 1.10,2013-01-01 15:27:00,
2013-01-01 09:42:00,40.6,39.0,30.11,NNE,12,3.0,6.0,94,0.00,,,0.40,weatherlink.com 1.10,2013-01-01 15:42:00,
2013-01-01 09:57:00,40.6,39.0,30.11,NNE,25,2.0,6.0,94,0.00,,,0.40,weatherlink.com 1.10,2013-01-01 15:57:00,
2013-01-01 10:12:00,40.5,39.0,30.11,WNW,288,2.0,7.0,94,0.00,,,0.40,weatherlink.com 1.10,2013-01-01 16:12:00,
2013-01-01 10:27:00,40.5,39.0,30.12,East,83,1.0,6.0,94,0.00,,,0.40,weatherlink.com 1.10,2013-01-01 16:27:00,
2013-01-01 10:42:00,40.7,39.0,30.12,NNE,19,4.0,7.0,94,0.00,,,0.40,weatherlink.com 1.10,2013-01-01 16:42:00,
2013-01-01 10:57:00,40.9,39.0,30.12,North,354,5.0,6.0,93,0.00,,,0.40,weatherlink.com 1.10,2013-01-01 16:57:00,
2013-01-01 11:12:00,41.1,39.0,30.13,NNE,32,6.0,8.0,93,0.00,,,0.40,weatherlink.com 1.10,2013-01-01 17:12:00,
2013-01-01 11:27:00,41.3,39.0,30.13,NE,39,3.0,5.0,92,0.00,,,0.40,weatherlink.com 1.10,2013-01-01 17:27:00,
2013-01-01 11:42:00,41.5,39.0,30.12,NNE,32,2.0,9.0,92,0.00,,,0.40,weatherlink.com 1.10,2013-01-01 17:42:00,
2013-01-01 11:58:00,41.6,39.0,30.10,NNE,18,2.0,7.0,91,0.00,,,0.40,weatherlink.com 1.10,2013-01-01 17:58:00,
2013-01-01 12:12:00,41.7,39.0,30.11,NNE,16,3.0,7.0,91,0.00,,,0.40,weatherlink.com 1.10,2013-01-01 18:12:00,
2013-01-01 12:27:00,41.5,39.0,30.09,North,11,5.0,10.0,90,0.00,,,0.40,weatherlink.com 1.10,2013-01-01 18:27:00,
2013-01-01 12:42:00,41.4,39.0,30.09,NNE,22,2.0,7.0,91,0.00,,,0.40,weatherlink.com 1.10,2013-01-01 18:42:00,
2013-01-01 12:57:00,41.3,39.0,30.09,NNE,13,4.0,5.0,91,0.00,,,0.40,weatherlink.com 1.10,2013-01-01 18:57:00,
2013-01-01 13:12:00,41.0,39.0,30.08,NNE,13,6.0,7.0,92,0.00,,,0.40,weatherlink.com 1.10,2013-01-01 19:12:00,
2013-01-01 13:27:00,40.9,39.0,30.08,NNE,15,1.0,6.0,92,0.00,,,0.40,weatherlink.com 1.10,2013-01-01 19:27:00,
2013-01-01 13:42:00,40.8,39.0,30.06,NE,44,5.0,7.0,92,0.00,,,0.40,weatherlink.com 1.10,2013-01-01 19:42:00,
2013-01-01 13:57:00,40.8,39.0,30.06,North,10,1.0,4.0,92,0.00,,,0.40,weatherlink.com 1.10,2013-01-01 19:57:00,
2013-01-01 14:12:00,40.8,39.0,30.07,NNE,16,3.0,3.0,92,0.00,,,0.40,weatherlink.com 1.10,2013-01-01 20:12:00,
2013-01-01 14:27:00,40.6,39.0,30.07,North,356,3.0,4.0,92,0.00,,,0.40,weatherlink.com 1.10,2013-01-01 20:27:00,
2013-01-01 14:42:00,40.4,39.0,30.08,NNE,28,0.0,4.0,93,0.00,,,0.40,weatherlink.com 1.10,2013-01-01 20:42:00,
2013-01-01 14:57:00,40.4,38.0,30.08,NNE,23,1.0,4.0,92,0.00,,,0.40,weatherlink.com 1.10,2013-01-01 20:57:00,
2013-01-01 15:12:00,40.5,38.0,30.08,North,349,2.0,5.0,92,0.00,,,0.40,weatherlink.com 1.10,2013-01-01 21:12:00,
2013-01-01 15:27:00,40.6,39.0,30.10,NNE,32,0.0,4.0,92,0.00,,,0.40,weatherlink.com 1.10,2013-01-01 21:27:00,
2013-01-01 15:42:00,40.3,38.0,30.11,NE,37,2.0,8.0,92,0.00,,,0.40,weatherlink.com 1.10,2013-01-01 21:42:00,
2013-01-01 15:57:00,40.0,38.0,30.09,NNW,335,3.0,7.0,92,0.00,,,0.40,weatherlink.com 1.10,2013-01-01 21:57:00,
2013-01-01 16:12:00,39.9,38.0,30.10,ENE,67,3.0,5.0,92,0.00,,,0.40,weatherlink.com 1.10,2013-01-01 22:12:00,
2013-01-01 16:27:00,39.5,37.0,30.11,SSW,204,2.0,12.0,92,0.00,,,0.40,weatherlink.com 1.10,2013-01-01 22:27:00,
2013-01-01 16:43:00,39.2,37.0,30.10,NE,39,3.0,9.0,92,0.00,,,0.40,weatherlink.com 1.10,2013-01-01 22:43:00,
2013-01-01 16:58:00,38.9,37.0,30.13,NNE,16,2.0,7.0,92,0.00,,,0.40,weatherlink.com 1.10,2013-01-01 22:58:00,
2013-01-01 17:13:00,38.0,36.0,30.14,NE,53,1.0,7.0,93,0.00,,,0.40,weatherlink.com 1.10,2013-01-01 23:13:00,
2013-01-01 17:28:00,37.3,36.0,30.15,West,259,5.0,12.0,93,0.00,,,0.40,weatherlink.com 1.10,2013-01-01 23:28:00,
2013-01-01 17:43:00,36.0,34.0,30.16,NE,37,3.0,12.0,93,0.00,,,0.40,weatherlink.com 1.10,2013-01-01 23:43:00,
2013-01-01 17:58:00,35.1,34.0,30.17,ENE,59,10.0,15.0,94,0.00,,,0.40,weatherlink.com 1.10,2013-01-01 23:58:00,
2013-01-01 18:13:00,34.6,33.0,30.18,NNW,332,2.0,10.0,95,0.00,,,0.40,weatherlink.com 1.10,2013-01-02 00:13:00,
2013-01-01 18:28:00,34.5,33.0,30.18,NE,41,2.0,6.0,95,0.00,,,0.40,weatherlink.com 1.10,2013-01-02 00:28:00,
2013-01-01 18:43:00,34.5,33.0,30.18,North,356,2.0,5.0,95,0.00,,,0.40,weatherlink.com 1.10,2013-01-02 00:43:00,
2013-01-01 18:58:00,34.7,33.0,30.18,NE,54,4.0,4.0,94,0.00,,,0.40,weatherlink.com 1.10,2013-01-02 00:58:00,
2013-01-01 19:13:00,34.7,33.0,30.18,NNE,33,1.0,5.0,93,0.00,,,0.40,weatherlink.com 1.10,2013-01-02 01:13:00,
2013-01-01 19:28:00,34.7,33.0,30.17,ESE,122,3.0,7.0,92,0.00,,,0.40,weatherlink.com 1.10,2013-01-02 01:28:00,
2013-01-01 19:43:00,34.7,33.0,30.18,North,352,1.0,5.0,92,0.00,,,0.40,weatherlink.com 1.10,2013-01-02 01:43:00,
2013-01-01 19:58:00,34.5,32.0,30.19,North,359,5.0,8.0,91,0.00,,,0.40,weatherlink.com 1.10,2013-01-02 01:58:00,
2013-01-01 20:13:00,33.9,32.0,30.19,NNE,13,5.0,8.0,91,0.00,,,0.40,weatherlink.com 1.10,2013-01-02 02:13:00,
2013-01-01 20:28:00,33.6,31.0,30.20,North,6,4.0,6.0,91,0.00,,,0.40,weatherlink.com 1.10,2013-01-02 02:28:00,
2013-01-01 20:43:00,33.3,31.0,30.20,North,359,1.0,6.0,91,0.00,,,0.40,weatherlink.com 1.10,2013-01-02 02:43:00,
2013-01-01 20:58:00,33.1,31.0,30.19,NNW,338,2.0,7.0,91,0.00,,,0.40,weatherlink.com 1.10,2013-01-02 02:58:00,
2013-01-01 21:13:00,33.0,31.0,30.19,NE,46,2.0,6.0,91,0.00,,,0.40,weatherlink.com 1.10,2013-01-02 03:13:00,
2013-01-01 21:28:00,32.8,31.0,30.19,North,9,1.0,6.0,91,0.00,,,0.40,weatherlink.com 1.10,2013-01-02 03:28:00,
2013-01-01 21:43:00,32.7,30.0,30.21,North,10,1.0,8.0,90,0.00,,,0.40,weatherlink.com 1.10,2013-01-02 03:43:00,
2013-01-01 21:58:00,32.5,30.0,30.21,NNW,344,3.0,5.0,90,0.00,,,0.40,weatherlink.com 1.10,2013-01-02 03:58:00,
2013-01-01 22:13:00,32.3,30.0,30.21,NE,51,9.0,9.0,90,0.00,,,0.40,weatherlink.com 1.10,2013-01-02 04:13:00,
2013-01-01 22:28:00,32.2,30.0,30.23,NNE,19,5.0,7.0,90,0.00,,,0.40,weatherlink.com 1.10,2013-01-02 04:28:00,
2013-01-01 22:43:00,32.0,29.0,30.21,NNE,26,1.0,6.0,90,0.00,,,0.40,weatherlink.com 1.10,2013-01-02 04:43:00,
2013-01-01 22:58:00,31.7,29.0,30.22,NNE,12,2.0,7.0,89,0.00,,,0.40,weatherlink.com 1.10,2013-01-02 04:58:00,
2013-01-01 23:13:00,31.6,29.0,30.21,North,354,6.0,7.0,89,0.00,,,0.40,weatherlink.com 1.10,2013-01-02 05:13:00,
2013-01-01 23:28:00,31.4,29.0,30.23,NNW,340,5.0,7.0,89,0.00,,,0.40,weatherlink.com 1.10,2013-01-02 05:28:00,
2013-01-01 23:44:00,31.0,28.0,30.22,NE,42,2.0,6.0,89,0.00,,,0.40,weatherlink.com 1.10,2013-01-02 05:44:00,
2013-01-01 23:59:00,30.8,28.0,30.22,North,352,2.0,9.0,89,0.00,,,0.40,weatherlink.com 1.10,2013-01-02 05:59:00,